Hourly Data Report for September 27, 2017

All times are specified in Local Standard Time (LST). Add 1 hour to adjust for Daylight Saving Time where and when it is observed.

ARVIAT A
NUNAVUT

61°05'38.000" N
94°04'18.000" W
10.40 m
2300427
71174
YEK

Related Data

No related data is available for this station

Download Data

Hourly Data (September 2017)
Hourly Data Report for September 27, 2017
Temp Definition
°C
Dew Point Temp Definition
°C
Rel Hum Definition
%
Wind Dir Definition
10's deg

Wind Spd Definition
km/h
Visibility Definition
km
Stn Press Definition
kPa
Hmdx Definition


Wind Chill Definition


Weather Definition


TIME
00:00 Legend Double Dagger 5.9 4.6 91 14 39 16.1 100.92     LegendNANA
01:00 Legend Double Dagger 6.0 5.0 93 14 34 16.1 100.86     LegendNANA
02:00 Legend Double Dagger 6.0 5.0 93 13 34 16.1 100.79     LegendNANA
03:00 Legend Double Dagger 6.2 5.2 93 13 34 16.1 100.72     LegendNANA
04:00 Legend Double Dagger 6.2 5.3 94 13 32 16.1 100.68     LegendNANA
05:00 Legend Double Dagger 6.1 5.4 95 13 26 16.1 100.63     LegendNANA
06:00 Legend Double Dagger 6.2 5.5 95 13 26 16.1 100.61     LegendNANA
07:00 Legend Double Dagger 6.1 5.4 95 13 24 14.5 100.59     LegendNANA
08:00 Legend Double Dagger 6.2 5.6 96 13 26 14.5 100.55     LegendNANA
09:00 Legend Double Dagger 6.4 5.7 95 13 21 16.1 100.56     LegendNANA
10:00 Legend Double Dagger 6.3 5.7 96 12 18 12.9 100.58     LegendNANA
11:00 Legend Double Dagger 6.1 5.8 98 11 17 6.4 100.59     Rain,Fog
12:00 Legend Double Dagger 6.2 6.1 99 11 17 2.8 100.60     Fog
13:00 Legend Double Dagger 6.2 6.1 99 10 13 4.0 100.63     Rain,Fog
14:00 Legend Double Dagger 6.5 6.4 99 10 13 6.4 100.66     Rain,Fog
15:00 Legend Double Dagger 6.3 6.2 99 8 9 4.8 100.72     Rain,Fog
16:00 Legend Double Dagger 6.3 6.2 99 5 11 4.8 100.77     Rain,Fog
17:00 Legend Double Dagger 6.3 6.2 99 3 11 8.1 100.83     Rain,Fog
18:00 Legend Double Dagger 6.2 6.1 99 2 13 6.4 100.90     Rain,Fog
19:00 Legend Double Dagger 6.1 6.1 100 1 18 1.2 100.96     Fog
20:00 Legend Double Dagger 6.1 6.1 100 1 26 3.2 101.03     Fog
21:00 Legend Double Dagger 6.0 6.0 100 2 22 2.8 101.10     Fog
22:00 Legend Double Dagger 6.0 6.0 100 1 26 3.2 101.18     Rain,Fog
23:00 Legend Double Dagger 6.0 5.9 99 2 32 4.8 101.26     Fog

Notes on Data Quality.

Legend

  • E = Estimated
  • M = Missing
  • NA = Not Available
  • ‡ = Partner data that is not subject to review by the National Climate Archives
Date modified: